Regional Weather Roundup
Issued by NWS

Home | Current Version | Previous Version | Graphics & Text | Print | Product List | Glossary On
Versions: 1 2 3 4 5 6 7 8 9 10 11 12 13 14 15 16 17 18 19 20 21 22 23 24 25 26 27 28 29 30 31 32 33 34 35 36 37 38 39 40 41 42 43 44 45 46 47 48 49 50
118
ASUS44 KMEG 271310
RWRTN
TENNESSEE HOURLY STATE WEATHER ROUNDUP
NATIONAL WEATHER SERVICE MEMPHIS TN
800 AM CDT THU APR 27 2017

TNZ002-004-019-021-049-052-054-088>092-271400-
WEST TENNESSEE

CITY           SKY/WX    TMP DP  RH WIND       PRES   REMARKS
MEMPHIS INTL   CLOUDY    52  46  80 W9        29.80R
NWS MEMPHIS      N/A     51 N/A N/A MISG        N/A
JACKSON        CLOUDY    52  48  86 W9        29.79R
DYERSBURG      CLOUDY    51  46  83 W13       29.79R
SOMERVILLE     CLOUDY    52  48  87 W3        29.79R
UNION CITY     CLOUDY    52  46  82 W9        29.75R
BOLIVAR        CLOUDY    52  48  87 W7        29.79R
PARIS          CLOUDY    48  45  87 W8        29.75R
HUNTINGDON     CLOUDY    52  48  87 W9        29.75R
LEXINGTON      CLOUDY    54  50  87 W10G17    29.76R
SAVANNAH       CLOUDY    55  54  94 NW3       29.76R
$$

TNZ008-025-027-028-033-062-065-066-271400-
NORTH MIDDLE TENNESSEE

CITY           SKY/WX    TMP DP  RH WIND       PRES   REMARKS
NASHVILLE      PTSUNNY   65  60  84 SW6       29.70R
PORTLAND       CLOUDY    63  59  88 SW10G17   29.68R
CLARKSVILLE    PTSUNNY   56  50  80 W14G22    29.70R
SMYRNA         PTSUNNY   66  61  84 SW9       29.71R
COOKEVILLE     CLOUDY    64  63  94 SW9       29.71R
GALLATIN       CLOUDY    64  61  88 SW8G16    29.72R
CROSSVILLE     CLOUDY    61  59  93 S6        29.74R
$$

TNZ061-075-076-078-094-096-097-271400-
SOUTH MIDDLE TENNESSEE

CITY           SKY/WX    TMP DP  RH WIND       PRES   REMARKS
FAYETTEVILLE     N/A    N/A N/A N/A SW9       29.73R
TULLAHOMA      CLOUDY    63  61  94 W10       29.74R
WINCHESTER     CLOUDY    63  61  94 W6        29.74R
MCMINNVILLE    CLOUDY    64  64 100 SW6       29.72R
COLUMBIA         N/A    N/A N/A N/A SW10      29.70R
SHELBYVILLE    PTSUNNY   66  63  88 SW7       29.73R
$$

TNZ017-018-042-046-047-271400-
NORTHEAST TENNESSEE

CITY           SKY/WX    TMP DP  RH WIND       PRES   REMARKS
TRI CITIES     CLOUDY    64  56  75 VRB5      29.85R
ELIZABETHTON   CLOUDY    64  59  82 W6        29.86R
$$

TNZ012-013-036-069-073-074-271400-
CENTRAL EAST TENNESSEE

CITY           SKY/WX    TMP DP  RH WIND       PRES   REMARKS
KNOXVILLE      TSTM      63  59  87 NE5       29.72F
OAK RIDGE      LGT RAIN  62  60  93 CALM      29.75F FOG
DOWNTOWN KNOXV CLOUDY    63  61  94 SE5       29.74F
GATLINBURG     MOSUNNY   59  55  88 E6        29.73F
MORRISTOWN     CLOUDY    61  59  94 SE6       29.75F
JACKSBORO      CLOUDY    63  59  88 CALM      29.76F
$$

TNZ083-085-099-271400-
SOUTHEAST TENNESSEE

CITY           SKY/WX    TMP DP  RH WIND       PRES   REMARKS
CHATTANOOGA    RAIN      63  62  97 S5        29.73S FOG
$$

SKY/WX REPORTED AS FAIR MEANS FEW OR NO CLOUDS BELOW
12 THOUSAND FEET.





USA.gov is the U.S. government's official web portal to all federal, state and local government web resources and services.